Flag for Netherlands Weather past 2 weeks in Zaandam, Netherlands

Now
63 °F

Passing clouds.


Feels Like: 63 °F
Forecast: 57 / 64 °F
Wind: 10 mph from West

Location: Amsterdam Schiphol Airport

Current Time: Aug 30, 2014 at 7:18:56 PM

Latest Report: Aug 30, 2014 at 6:55 PM


Visibility: N/A

Pressure: 29.95 "Hg

Humidity: 83%

Dew point: 57 °F

Location of ZaandamLocation

Historic Weather in Zaandam — Graph

°F

Zaandam temperature yesterday

Maximum temperature yesterday: 70 °F (at 1:25 PM)
Minimum temperature yesterday: 57 °F (at 12:55 AM)
Average temperature yesterday: 63 °F

Past Weeks' High & Low Weather Summary

 TemperatureHumidityPressure
High70 °F (Aug 27, 3:55 PM)100% (Aug 17, 2:55 PM)30.07 "Hg (Aug 17, 2:55 PM)
Low46 °F (Aug 21, 5:55 AM)53% (Aug 27, 3:55 PM)29.59 "Hg (Aug 18, 3:55 AM)
Average58 °F83%29.89 "Hg
* Reported Aug 15 5:25 PM — Aug 30 5:55 PM, Zaandam, Weather by CustomWeather, © 2014

Note: Actual official high and low records may vary slightly from our data, if they occured in-between our weather recording intervals... More about our weather records

Advertising

Zaandam weather history for previous 24 hours

 ConditionsComfort  
Time TempWeatherWind HumidityBarometerVisibility
5:55 PM
Aug 30
63 °FSprinkles. Scattered clouds.20 mph83%29.92 "HgN/A
5:25 PM63 °FScattered clouds.17 mph77%29.92 "HgN/A
4:55 PM64 °FScattered clouds.18 mph73%29.92 "HgN/A
4:25 PM64 °FPassing clouds.21 mph73%29.92 "HgN/A
3:55 PM64 °FPassing clouds.22 mph68%29.92 "HgN/A
3:25 PM66 °FPassing clouds.21 mph68%29.92 "HgN/A
2:55 PM66 °FPassing clouds.21 mph73%29.92 "HgN/A
2:25 PM66 °FPassing clouds.16 mph73%29.92 "HgN/A
1:55 PM66 °FScattered clouds.17 mph78%29.92 "HgN/A
1:25 PM66 °FPassing clouds.16 mph83%29.92 "HgN/A
12:55 PM64 °FPassing clouds.16 mph83%29.92 "HgN/A
12:25 PM64 °FSprinkles. Broken clouds.15 mph88%29.92 "HgN/A
11:55 AM64 °FSprinkles. Broken clouds.15 mph88%29.92 "HgN/A
11:25 AM66 °FBroken clouds.21 mph83%29.92 "HgN/A
10:55 AM63 °FBroken clouds.15 mph94%29.92 "HgN/A
10:25 AM64 °FBroken clouds.15 mph94%29.92 "HgN/A
9:55 AM64 °FBroken clouds.13 mph94%29.92 "HgN/A
9:25 AM63 °FBroken clouds.13 mph94%29.92 "HgN/A
8:55 AM61 °FBroken clouds.14 mph100%29.92 "HgN/A
8:25 AM61 °FRain showers. Broken clouds.14 mph100%29.92 "Hg4 mi
7:55 AM61 °FBroken clouds.14 mph100%29.92 "HgN/A
7:25 AM61 °FPassing clouds.14 mph94%29.92 "Hg6 mi
6:55 AM61 °FPassing clouds.14 mph94%29.92 "HgN/A
6:25 AM61 °FPartly cloudy.15 mph94%29.92 "HgN/A
5:55 AM61 °FPartly cloudy.15 mph94%29.92 "HgN/A
5:25 AM61 °FRain. Partly cloudy.16 mph94%29.92 "Hg4 mi
4:55 AM61 °FPassing clouds.14 mph94%29.92 "Hg5 mi
4:25 AM61 °FPartly cloudy.16 mph94%29.92 "HgN/A
3:55 AM61 °FPassing clouds.13 mph94%29.92 "HgN/A
3:25 AM61 °FPassing clouds.14 mph94%29.92 "HgN/A
2:55 AM61 °FPassing clouds.15 mph94%29.92 "HgN/A
2:25 AM61 °FPassing clouds.13 mph94%29.92 "HgN/A
1:55 AM61 °FPassing clouds.14 mph94%29.92 "HgN/A
1:25 AM61 °FLight rain. Passing clouds.15 mph88%29.92 "HgN/A
12:55 AM61 °FPassing clouds.14 mph88%29.92 "HgN/A
12:25 AM63 °FPassing clouds.13 mph83%29.95 "HgN/A
11:55 PM
Aug 29
61 °FPassing clouds.13 mph88%29.95 "HgN/A
11:25 PM61 °FPassing clouds.12 mph88%29.95 "HgN/A
10:55 PM61 °FPassing clouds.12 mph88%29.95 "HgN/A
8:55 PM63 °FPassing clouds.16 mph77%29.92 "HgN/A
8:25 PM64 °FPassing clouds.16 mph73%29.92 "HgN/A
7:55 PM64 °FPassing clouds.16 mph73%29.92 "HgN/A
7:25 PM64 °FPassing clouds.18 mph73%29.92 "HgN/A
Weather by CustomWeather, © 2014

See weather overviewHow to use our weather pages